SCP
0 0 0 0 0 0 0 0 0 0 0 0 0 0 0 0 0 0 0 0 0 0 0 0 0 0 0 0 1 1 0 0 0 0 0 0 0 0 0 0 0 0 0
0 0 0 0 0 0 0 0 0 0 0 0 0 0 0 0 0 0 0 0 0 0 0 0 0 0 0 0 0 0 0 0 0 0 0 0 0 0 0 0 0 0 0
0 0 0 0 0 0 0 0 0 0 0 0 0 0 0 0 0 0 0 0 0 0 0 0 0 0 0 0 0 0 0 0 0 0 0 0 0 0 0 0 0 0 0
0 0 0 0 0 0 0 0 0 0 0 0 0 0 0 0 0 0 0 0 0 0 0 0 0 0 0 0 0 0 0 0 0 0 0 0 0 0 0 0 0 0 0
0 0 0 0 0 0 0 0 0 0 0 0 0 0 0 0 0 0 0 0 0 0 0 0 0 0 0 0 0 0 0 0 0 0 0 0 0 0 0 0 0 0 0
0 0 0 0 0 0 0 0 0 0 0 0 0 0 0 0 0 0 0 0 0 0 0 0 0 0 0 0 0 0 0 0 0 0 0 0 0 0 0 0 0 0 0
0 0 0 0 0 0 0 0 0 0 0 0 0 0 0 0 0 0 0 0 0 0 0 0 0 0 0 0 0 0 0 0 0 0 0 0 0 0 0 0 0 0 0
0 0 0 0 0 0 0 0 0 0 0 0 0 0 0 0 0 0 0 0 0 0 0 0 0 0 0 0 0 0 0 0 0 0 0 0 0 0 0 0 0 0 0
0 0 0 0 0 0 0 0 0 0 0 0 0 0 0 0 0 0 0 0 0 0 0 0 0 0 0 0 0 0 0 0 0 0 0 0 0 0 0 0 0 0 0
0 0 0 0 0 0 0 0 0 0 0 0 0 0 0 0 0 0 0 0 0 0 0 0 0 0 0 0 0 0 0 0 0 0 0 0 0 0 0 0 0 0 0
0 0 0 0 0 0 0 0 0 0 0 0 0 0 0 0 0 0 0 0 0 0 0 0 0 0 0 0 0 0 0 0 0 0 0 0 0 0 0 0 0 0 0
0 0 0 0 0 0 0 0 0 0 0 0 0 0 0 0 0 0 0 0 0 0 0 0 0 0 0 0 0 0 0 0 0 0 0 0 0 0 0 0 0 0 0
0 0 0 0 0 0 0 0 0 0 0 0 0 0 0 0 0 0 0 0 0 0 0 0 0 0 0 0 0 0 0 0 0 0 0 0 0 0 0 0 0 0 0
0 0 0 0 0 0 0 0 0 0 0 0 0 0 0 0 0 0 0 0 0 0 0 0 0 0 0 0 0 0 0 0 0 0 0 0 0 0 0 0 0 0 0
0 0 0 0 0 0 0 0 0 0 0 0 0 0 0 0 0 0 0 0 0 0 0 0 0 0 0 0 0 0 0 0 0 0 0 0 0 0 0 0 0 0 0
0 0 0 0 0 0 0 0 0 0 0 0 0 0 0 0 0 0 0 0 0 0 0 0 0 0 0 0 0 0 0 0 0 0 0 0 0 0 0 0 0 0 0
0 0 0 0 0 0 0 0 0 0 0 0 0 0 0 0 0 0 0 0 0 0 0 0 0 0 0 0 0 0 0 0 0 0 0 0 0 0 0 0 0 0 0
0 0 0 0 0 0 0 0 0 0 0 0 0 0 0 0 0 0 0 0 0 0 0 0 0 0 0 0 0 0 0 0 0 0 0 0 0 0 0 0 0 0 0
0 0 0 0 0 0 0 0 0 0 0 0 0 0 0 0 0 0 0 0 0 0 0 0 0 0 0 0 0 0 0 0 0 0 0 0 0 0 0 0 0 0 0
0 0 0 0 0 0 0 0 0 0 0 0 0 0 0 0 0 0 0 0 0 0 0 0 0 0 0 0 0 0 0 0 0 0 0 0 0 0 0 0 0 0 0
0 0 0 0 0 0 0 0 0 0 0 0 0 0 0 0 0 0 0 0 0 0 0 0 0 0 0 0 0 0 0 0 0 0 0 0 0 0 0 0 0 0 0
0 0 0 0 0 0 0 0 0 0 0 0 0 0 0 0 0 0 0 0 0 0 0 0 0 0 0 0 0 0 0 0 0 0 0 0 0 0 0 0 0 0 0
0 0 0 0 0 0 0 0 0 0 0 0 0 0 0 0 0 0 0 0 0 0 0 0 0 0 0 0 0 0 0 0 0 0 0 0 0 0 0 0 0 0 0
0 0 0 0 0 0 0 0 0 0 0 0 0 0 0 0 0 0 0 0 0 0 0 0 0 0 0 0 0 0 0 0 0 0 0 0 0 0 0 0 0 0 0
0 0 0 0 0 0 0 0 0 0 0 0 0 0 0 0 0 0 0 0 0 0 0 0 0 0 0 0 0 0 0 0 0 0 0 0 0 0 0 0 0 0 0
0 0 0 0 0 0 0 0 0 0 0 0 0 0 0 0 0 0 0 0 0 0 0 0 0 0 0 0 0 0 0 0 0 0 0 0 0 0 0 0 0 0 0
Wind_Speed
4 3 3 2 1 1 1 2 2 2 2 3 3 3 3 4 4 4 5 5 6 6 6 6 6 6 4 4 4 4 5 5 6 5 2 1 2 3 2 2 3 3 2
4 4 4 3 2 1 1 1 1 1 1 1 1 1 2 3 3 4 4 5 5 5 5 5 5 4 4 4 3 4 4 4 5 5 3 2 2 2 2 2 2 1 0
5 5 5 4 3 2 2 2 2 2 1 1 1 1 1 2 2 2 3 3 4 4 4 4 4 3 3 2 3 3 3 3 3 4 3 1 1 1 1 1 1 1 1
6 6 5 5 4 4 3 3 3 2 2 2 2 2 2 1 1 1 1 1 1 1 1 1 2 2 2 2 2 3 2 2 2 3 2 1 1 1 1 1 1 0 1
7 6 6 5 5 4 4 4 3 3 3 3 3 3 3 2 2 1 1 1 1 0 0 0 1 2 2 1 1 1 1 2 2 2 1 1 0 1 1 1 1 1 1
7 7 6 5 5 4 4 4 4 4 4 4 4 4 5 4 7 6 3 2 2 1 1 2 2 3 5 5 5 5 4 1 1 0 0 0 1 1 1 1 1 1 0
7 6 6 5 5 4 4 5 5 4 4 5 5 6 6 7 8 7 7 4 4 4 3 3 2 4 4 4 6 8 9 10 7 3 2 2 2 2 1 1 1 1 1
7 6 6 5 5 5 5 5 5 5 5 5 6 6 6 7 8 6 6 6 6 5 5 5 4 5 5 5 5 7 7 8 7 5 5 4 4 3 2 0 1 2 2
7 6 6 5 6 5 6 5 5 5 6 6 6 6 6 7 8 6 4 5 6 7 7 7 6 6 7 6 7 8 8 7 9 11 9 7 8 7 5 1 1 1 2
7 6 6 6 6 6 5 5 5 5 6 6 7 7 7 8 9 8 4 4 6 6 7 8 11 10 9 7 6 7 7 5 5 5 6 5 5 6 6 5 3 2 1
7 7 7 6 6 6 5 5 5 5 6 7 8 8 9 9 10 11 9 4 5 6 7 7 8 11 11 10 7 7 5 3 4 4 5 5 5 5 5 6 6 5 4
8 8 7 6 6 6 6 6 6 5 6 7 7 8 7 8 9 10 11 9 7 7 7 7 8 10 11 10 8 7 3 2 4 4 4 5 5 5 5 5 6 6 5
9 9 8 7 7 6 6 6 5 4 4 5 5 6 6 6 7 11 12 12 11 8 9 11 9 7 8 9 9 6 4 4 5 5 5 5 5 4 3 2 4 4 4
9 8 8 7 8 7 5 5 5 5 4 5 5 5 5 5 5 5 6 7 9 9 8 9 8 8 7 7 5 5 6 6 5 5 4 4 4 3 3 4 3 2 2
9 8 8 8 8 8 8 8 7 8 6 5 5 5 5 6 7 8 6 6 6 6 5 5 6 6 6 7 6 6 6 5 5 5 4 4 4 4 4 4 3 3 3
9 8 7 6 7 7 9 10 16 13 14 14 12 8 8 9 8 9 10 10 8 4 4 7 6 6 6 6 6 5 6 6 5 4 4 4 4 4 4 4 3 3 3
8 8 7 6 7 7 7 8 9 10 13 14 13 12 11 9 9 9 8 7 5 3 6 7 6 5 5 5 5 5 5 5 4 4 5 4 4 4 4 4 4 4 4
9 8 7 6 6 6 6 6 6 7 8 8 9 10 9 8 7 5 3 3 6 5 6 6 6 5 5 5 5 5 5 5 4 4 5 4 4 4 4 4 4 5 5
8 6 6 6 6 6 6 6 6 7 7 7 7 7 6 7 6 3 1 4 6 6 6 6 5 5 5 5 5 4 5 5 5 4 5 5 4 4 4 4 4 4 4
7 8 6 6 7 6 6 6 6 6 6 6 6 6 5 4 5 5 5 5 5 6 5 5 5 5 5 4 4 4 4 4 4 4 4 4 4 4 4 5 5 4 4
8 8 7 6 6 6 5 6 6 5 6 6 6 5 4 3 5 6 5 5 5 5 5 4 4 4 4 3 4 4 4 4 4 4 4 4 4 4 4 4 4 4 4
7 7 6 6 6 6 6 6 5 6 6 7 6 6 2 2 5 5 5 5 5 4 4 3 3 4 4 4 3 3 3 4 4 4 4 4 3 4 4 4 4 4 4
7 8 7 7 7 6 5 6 5 5 5 5 5 5 4 3 4 4 4 4 4 3 3 3 3 4 4 3 3 4 4 5 4 5 5 4 4 4 4 4 4 5 5
8 8 8 7 7 6 6 6 5 5 5 5 5 4 4 4 4 4 3 3 3 3 3 3 3 4 4 3 3 4 6 6 7 4 5 5 5 4 4 4 4 5 5
7 7 7 7 6 6 6 5 5 5 5 5 4 4 4 4 4 4 3 3 3 3 2 2 2 2 3 3 4 6 6 5 5 8 6 5 5 5 5 5 4 4 5
7 7 6 6 6 5 5 5 5 5 4 4 4 3 3 3 3 3 3 2 2 2 1 1 1 1 1 1 4 4 2 2 4 6 8 6 5 5 6 5 6 5 5
Wind_Direction
143 146 139 143 151 179 220 255 262 271 272 268 261 255 249 244 241 236 239 237 234 235 238 239 243 250 247 246 242 246 248 248 256 265 268 260 260 278 269 255 244 236 193
125 124 119 112 114 129 90 9 360 328 313 300 282 263 257 247 243 239 241 242 240 239 240 243 246 236 232 249 251 251 256 264 258 260 268 266 247 256 264 265 263 220 172
125 117 110 104 100 87 68 49 46 45 26 3 340 317 302 287 266 256 246 242 240 243 241 242 246 241 239 235 242 249 250 251 255 257 257 273 262 252 237 228 250 290 181
119 116 110 103 96 88 81 68 56 53 50 36 22 14 360 346 318 278 235 232 230 246 269 257 268 260 246 241 234 244 252 251 237 244 249 254 255 255 250 227 202 103 305
118 112 106 104 99 93 87 79 69 61 58 54 40 30 26 16 4 6 117 119 123 95 5 3 37 52 50 20 292 258 247 245 237 229 227 247 275 290 286 285 242 152 55
114 108 104 103 101 97 92 86 80 72 64 60 54 47 43 40 39 38 39 68 69 70 57 48 55 75 82 85 70 59 45 24 341 323 243 311 327 335 344 296 272 249 202
113 108 105 103 96 92 90 85 78 73 71 67 62 60 58 50 48 51 56 71 68 62 61 61 55 62 75 92 91 85 68 56 46 33 52 35 26 10 340 329 14 350 14
113 108 106 104 98 89 81 76 78 77 74 70 65 65 66 56 45 49 61 80 73 63 59 61 67 67 69 84 89 81 69 57 53 58 65 49 39 19 357 21 125 120 116
110 105 101 102 100 94 85 77 75 78 77 72 68 65 65 58 40 40 54 85 79 69 64 60 66 77 64 73 91 89 82 76 72 73 71 71 62 43 13 45 87 112 92
108 102 95 92 93 90 84 83 83 82 82 79 72 64 61 58 42 34 36 87 86 83 75 69 62 67 62 58 86 94 91 84 85 88 84 81 70 64 43 27 16 24 59
112 105 97 93 91 91 88 83 86 88 87 81 78 71 62 56 53 38 26 62 81 83 76 70 63 61 61 55 62 73 73 77 94 90 87 77 68 59 52 46 28 15 21
113 107 100 95 90 91 91 88 89 92 97 93 87 78 67 57 51 51 46 44 52 78 77 76 75 71 67 61 61 54 32 24 75 69 65 59 55 51 49 51 51 47 41
113 106 100 94 87 84 85 87 91 90 92 92 91 85 79 75 71 65 63 59 57 72 77 78 79 86 92 78 65 40 35 54 56 59 56 51 46 40 38 70 84 83 79
115 112 109 103 96 86 78 74 69 64 77 85 87 89 88 78 66 72 91 94 98 95 96 98 92 74 74 76 74 56 51 45 42 52 51 48 44 39 33 29 30 29 53
123 121 116 108 102 91 75 52 59 55 41 53 71 76 77 76 48 35 44 61 66 72 88 89 76 72 65 62 59 53 48 47 45 43 44 42 39 38 36 30 14 14 28
131 130 126 123 118 114 109 90 58 61 59 55 48 57 74 72 79 72 68 65 59 42 70 80 72 66 62 61 60 58 53 45 36 37 38 33 30 30 30 26 21 20 23
133 131 129 127 125 122 120 117 110 87 72 63 58 61 73 83 83 84 85 81 66 52 76 74 69 65 62 60 57 54 53 47 28 35 38 33 26 25 26 25 21 17 19
129 122 126 126 125 122 121 121 120 121 116 101 80 73 82 89 85 86 106 111 87 72 72 75 70 64 59 53 51 48 47 43 35 35 37 32 25 21 21 18 26 13 6
128 127 123 120 121 120 122 123 120 118 116 116 117 107 107 115 107 76 57 77 78 76 75 73 69 64 59 55 50 46 43 41 31 25 38 27 22 19 17 14 28 26 346
115 111 124 130 128 128 127 122 120 121 120 118 114 111 131 141 111 98 79 68 73 73 70 69 63 56 54 50 47 42 46 47 36 29 33 22 18 14 19 12 5 1 5
127 128 136 132 123 125 124 122 120 119 116 111 98 73 14 94 93 89 82 76 71 70 66 64 66 60 56 45 40 39 36 40 34 23 21 12 10 8 1 3 1 355 358
129 131 129 118 119 120 120 120 120 120 120 118 119 120 110 97 94 92 88 85 81 74 67 54 59 57 42 37 32 24 27 31 25 12 6 359 354 353 350 352 353 350 349
127 126 123 121 121 124 134 129 129 128 125 123 123 122 121 100 96 96 94 91 87 83 79 69 56 54 49 37 27 22 19 18 9 359 344 343 344 343 343 348 344 339 347
133 133 132 132 134 138 137 134 130 127 125 122 119 118 116 116 109 106 105 100 95 90 80 70 63 62 49 30 26 41 34 8 341 337 336 328 329 336 335 334 331 340 338
140 140 139 140 142 141 136 135 132 131 129 129 131 132 128 126 124 124 121 113 110 100 94 83 76 73 53 40 36 43 40 9 345 332 315 313 327 330 327 328 329 326 329
142 141 139 138 138 139 144 145 141 141 141 141 142 140 141 141 138 135 137 135 136 132 134 113 84 68 22 58 63 61 46 345 327 316 307 307 316 330 333 323 325 322 328